Location: Beuvrequen
(50.8014°N, 1.6652°E)
Time: 22:06:19
(UTC+00:00)

Cosmos 1703 - Pass Details

Date: 16 October 2021
Orbit: 521 x 538 km, 82.5° (Epoch: 05 December)

Event Time Altitude Azimuth Distance (km) Brightness Sun altitude
Rises 18:00:35 0° 353° (N) 2,704 6.9 -10.5°
Reaches altitude 10° 18:02:48 10° 359° (N) 1,805 6.0 -10.9°
Maximum altitude 18:06:41 51° 76° (ENE) 680 3.4 -11.5°
Drops below altitude 10° 18:10:30 10° 153° (SSE) 1,779 5.7 -12.1°
Sets 18:12:40 0° 158° (SSE) 2,661 6.6 -12.4°
